Bundaberg Observation History
Time Wind Speed Temp Pressure Rel. Hum Rain
14/10:00am SW 8-12 kts 20.3°c 1015.3 hPa 43% 0.0mm
14/09:30am SSW 9-13 kts 19.3°c 1015.6 hPa 46% 0.0mm
14/09:00am SW 9-11 kts 18.1°c 1015.5 hPa 51% 0.0mm
14/08:30am SW 8-12 kts 17.1°c 1015.5 hPa 54% 0.0mm
14/08:00am SW 8-12 kts 16.2°c 1015.3 hPa 56% 0.0mm
14/07:30am SW 7-9 kts 15.0°c 1015.1 hPa 62% 0.0mm
14/07:00am WSW 7-9 kts 13.8°c 1014.5 hPa 66% 0.0mm
14/06:30am WSW 7-11 kts 13.1°c 1013.9 hPa 68% 0.0mm
14/06:00am WSW 7-9 kts 12.8°c 1013.8 hPa 68% 0.0mm
14/05:30am SW 7-10 kts 13.6°c 1013.5 hPa 65% 0.0mm
14/05:00am WSW 6-9 kts 13.1°c 1013.1 hPa 68% 0.0mm
14/04:30am SW 6-8 kts 12.9°c 1012.8 hPa 69% 0.0mm
14/04:00am SW 7-9 kts 12.9°c 1012.7 hPa 68% 0.0mm
14/03:30am SW 9-13 kts 14.6°c 1012.3 hPa 62% 0.0mm
14/03:00am WSW 7-9 kts 13.4°c 1012.9 hPa 70% 0.0mm
14/02:30am W 6-7 kts 12.5°c 1012.8 hPa 72% 0.0mm
14/02:00am WSW 6-7 kts 14.3°c 1012.9 hPa 63% 0.0mm
14/01:30am WSW 4-6 kts 14.3°c 1013.1 hPa 64% 0.0mm
14/01:00am WSW 5-7 kts 14.9°c 1013.4 hPa 62% 0.0mm
14/12:30am SW 6-8 kts 15.7°c 1013.5 hPa 59% 0.0mm
14/12:00am SW 4-6 kts 16.7°c 1013.8 hPa 56% 0.0mm
Time Wind Speed Temp Pressure Rel. Hum Rain
13/11:30pm SW 5-9 kts 17.5°c 1014.0 hPa 55% 0.0mm
13/11:00pm WSW 5-8 kts 17.6°c 1013.9 hPa 58% 0.0mm
13/10:30pm SW 5-7 kts 17.7°c 1013.8 hPa 59% 0.0mm
13/10:00pm SSW 5-7 kts 18.4°c 1013.5 hPa 60% 0.0mm
13/09:30pm SSW 4-5 kts 18.1°c 1013.6 hPa 64% 0.0mm
13/09:00pm S 3-5 kts 19.3°c 1013.3 hPa 60% 0.0mm
13/08:30pm SW 5-8 kts 19.7°c 1013.1 hPa 59% 0.0mm
13/08:00pm SSW 5-6 kts 19.9°c 1012.8 hPa 63% 0.0mm
13/07:30pm NW 1-3 kts 20.5°c 1012.6 hPa 64% 0.0mm
13/07:00pm SSW 7-11 kts 22.1°c 1012.2 hPa 58% 0.0mm
13/06:30pm SW 6-8 kts 22.2°c 1012.0 hPa 61% 0.0mm
13/06:00pm SSW 5-6 kts 22.4°c 1011.6 hPa 61% 0.0mm
13/05:30pm SSW 4-5 kts 23.5°c 1011.3 hPa 57% 0.0mm
13/05:00pm SSW 7-10 kts 24.8°c 1011.0 hPa 52% 0.0mm
13/04:30pm SSW 8-12 kts 25.9°c 1010.5 hPa 47% 0.0mm
13/04:00pm SSW 9-13 kts 26.8°c 1010.3 hPa 43% 0.0mm
13/03:30pm SW 7-12 kts 27.4°c 1010.4 hPa 43% 0.0mm
13/03:00pm WSW 7-11 kts 28.1°c 1010.4 hPa 45% 0.0mm
13/02:30pm SW 7-12 kts 27.9°c 1010.5 hPa 46% 0.0mm
13/02:00pm WSW 7-12 kts 27.8°c 1010.8 hPa 46% 0.0mm
13/01:30pm WSW 6-10 kts 27.6°c 1011.2 hPa 49% 0.0mm
13/01:00pm SW 7-11 kts 26.4°c 1011.7 hPa 53% 0.0mm
13/12:30pm SW 6-8 kts 25.8°c 1012.1 hPa 59% 0.0mm
13/12:00pm WSW 7-11 kts 25.3°c 1012.6 hPa 60% 0.0mm
13/11:30am W 4-7 kts 24.9°c 1013.2 hPa 63% 0.0mm
13/11:00am WSW 6-12 kts 25.0°c 1013.5 hPa 64% 0.0mm
13/10:30am SSW 6-8 kts 24.4°c 1013.9 hPa 66% 0.0mm
13/10:00am SSW 6-9 kts 23.9°c 1014.2 hPa 67% 0.0mm
13/09:30am WSW 6-8 kts 22.2°c 1014.2 hPa 72% 0.0mm
13/09:00am SW 6-9 kts 22.3°c 1014.4 hPa 76% 1.0mm
13/08:30am SW 6-8 kts 20.8°c 1014.3 hPa 84% 1.0mm
13/08:00am SW 6-9 kts 19.5°c 1014.4 hPa 88% 1.0mm
13/07:30am SW 6-8 kts 19.1°c 1014.3 hPa 93% 1.0mm
13/07:00am SW 6-8 kts 18.5°c 1014.0 hPa 95% 1.0mm
13/06:30am SW 7-9 kts 18.0°c 1013.8 hPa 97% 1.0mm
13/06:00am SW 5-6 kts 17.8°c 1013.5 hPa 98% 1.0mm
13/05:30am SW 5-7 kts 17.9°c 1013.2 hPa 97% 1.0mm
13/05:00am S 5-7 kts 18.2°c 1013.1 hPa 97% 1.0mm
13/04:30am S 4-6 kts 18.1°c 1013.1 hPa 97% 1.0mm
13/04:00am SSE 5-6 kts 18.1°c 1013.1 hPa 96% 1.0mm
13/03:30am SE 5-6 kts 18.4°c 1013.0 hPa 96% 1.0mm
13/03:00am SSE 5-7 kts 18.2°c 1013.1 hPa 95% 1.0mm
13/02:30am SSW 5-6 kts 18.4°c 1013.3 hPa 96% 1.0mm
13/02:00am SSW 4-5 kts 18.1°c 1013.3 hPa 96% 1.0mm
13/01:30am SSW 5-8 kts 18.2°c 1013.5 hPa 96% 1.0mm
13/01:00am SSE 6-8 kts 18.4°c 1013.8 hPa 95% 0.8mm
13/12:30am S 6-8 kts 18.7°c 1014.0 hPa 93% 0.8mm
13/12:00am SSW 7-9 kts 19.1°c 1014.5 hPa 92% 0.8mm
Time Wind Speed Temp Pressure Rel. Hum Rain
12/11:30pm S 8-12 kts 19.4°c 1014.8 hPa 88% 0.8mm
12/11:13pm S 7-10 kts 19.8°c 1014.7 hPa 87% 0.8mm
12/11:00pm S 7-10 kts 19.9°c 1014.8 hPa 88% 0.8mm
12/10:30pm S 5-7 kts 21.5°c 1014.8 hPa 99% 0.0mm
12/10:00pm S 6-7 kts 21.2°c 1014.7 hPa 99% 0.0mm
12/09:47pm SSE 5-8 kts 21.3°c 1014.7 hPa 99% 0.0mm
12/09:30pm S 5-7 kts 21.5°c 1014.7 hPa 99% 0.0mm
12/09:00pm SSE 4-5 kts 21.8°c 1014.5 hPa 94% 0.0mm
12/08:30pm CALM 0 kts 22.6°c 1013.9 hPa 93% 0.0mm
12/08:00pm N 5-7 kts 22.8°c 1013.9 hPa 93% 0.0mm
12/07:30pm NNE 6-8 kts 22.8°c 1013.8 hPa 92% 0.0mm
12/07:00pm NE 5-7 kts 22.8°c 1013.8 hPa 91% 0.0mm
12/06:30pm ENE 5-7 kts 23.0°c 1013.8 hPa 89% 0.0mm
12/06:00pm NE 7-8 kts 23.5°c 1013.8 hPa 84% 0.0mm
12/05:30pm NE 7-10 kts 24.1°c 1013.7 hPa 80% 0.0mm
12/05:00pm NNE 8-11 kts 25.0°c 1013.4 hPa 73% 0.0mm
12/04:30pm NE 8-11 kts 25.8°c 1013.1 hPa 67% 0.0mm
12/04:00pm NNE 9-13 kts 26.6°c 1012.8 hPa 65% 0.0mm
12/03:30pm NNE 11-13 kts 27.3°c 1012.6 hPa 62% 0.0mm
12/03:00pm NE 11-13 kts 27.8°c 1012.4 hPa 61% 0.0mm
12/02:30pm NNE 11-17 kts 27.7°c 1012.6 hPa 60% 0.0mm
12/02:00pm NNE 8-11 kts 28.5°c 1012.9 hPa 57% 0.0mm
12/01:30pm NNE 7-11 kts 28.5°c 1013.3 hPa 57% 0.0mm
12/01:00pm N 3-6 kts 28.2°c 1013.8 hPa 56% 0.0mm
12/12:30pm NNW 5-7 kts 27.3°c 1014.5 hPa 59% 0.0mm
12/12:00pm NNE 6-10 kts 27.4°c 1015.1 hPa 59% 0.0mm
12/11:30am NNE 5-9 kts 26.4°c 1015.8 hPa 65% 0.0mm
12/11:00am NNW 5-8 kts 26.2°c 1016.3 hPa 68% 0.0mm
12/10:30am N 4-7 kts 25.6°c 1016.5 hPa 69% 0.0mm
12/10:06am E 1-4 kts 24.9°c 1016.6 hPa 80% 0.0mm
12/10:02am ESE 1-4 kts 24.4°c 1016.6 hPa 81% 0.0mm
12/10:00am SSE 1-4 kts 24.4°c 1016.6 hPa 81% 0.0mm
12/09:43am SSE 4-6 kts 23.5°c 1016.6 hPa 88% 0.0mm
12/09:32am S 5-7 kts 23.0°c 1016.7 hPa 90% 0.0mm
12/09:30am S 5-7 kts 22.8°c 1016.7 hPa 91% 0.0mm
12/09:15am S 6-8 kts 22.5°c 1016.8 hPa 94% 0.0mm
12/09:00am S 5-6 kts 22.2°c 1016.9 hPa 98% 0.2mm
12/08:43am SSW 5-7 kts 21.8°c 1016.9 hPa 100% 0.2mm
12/08:41am SSW 5-7 kts 21.7°c 1016.9 hPa 100% 0.2mm
12/08:30am SSW 5-6 kts 21.4°c 1016.9 hPa 100% 0.2mm
12/08:24am SSW 5-6 kts 21.1°c 1016.9 hPa 100% 0.2mm
12/08:07am SSW 5-7 kts 20.7°c 1017.0 hPa 100% 0.2mm
12/08:00am SSW 5-7 kts 20.4°c 1017.0 hPa 100% 0.2mm
12/07:50am SSW 5-7 kts 20.2°c 1016.9 hPa 100% 0.2mm
12/07:33am SSW 6-8 kts 19.7°c 1016.7 hPa 100% 0.2mm
12/07:30am SSW 6-8 kts 19.7°c 1016.7 hPa 99% 0.2mm
12/07:23am SSW 6-8 kts 19.5°c 1016.5 hPa 99% 0.2mm
12/07:16am SSW 6-8 kts 19.4°c 1016.4 hPa 99% 0.2mm
12/07:09am SSW 6-8 kts 19.3°c 1016.4 hPa 99% 0.2mm
12/07:00am SSW 6-7 kts 19.1°c 1016.4 hPa 99% 0.2mm
12/06:42am SSW 4-6 kts 18.8°c 1016.1 hPa 99% 0.2mm
12/06:30am SSW 3-5 kts 18.8°c 1016.1 hPa 99% 0.2mm
12/06:25am SSW 4-6 kts 18.8°c 1016.1 hPa 99% 0.2mm
12/06:09am S 3-5 kts 18.7°c 1016.0 hPa 99% 0.2mm
12/06:00am S 3-4 kts 18.4°c 1015.8 hPa 99% 0.2mm
12/05:30am S 5-8 kts 18.7°c 1015.4 hPa 99% 0.2mm
12/05:00am SSW 7-8 kts 18.6°c 1015.3 hPa 99% 0.2mm
12/04:30am SSW 7-9 kts 18.5°c 1015.3 hPa 99% 0.2mm
12/04:00am S 7-9 kts 18.7°c 1015.1 hPa 99% 0.2mm
12/03:30am SSW 7-8 kts 18.6°c 1015.3 hPa 99% 0.2mm
12/03:00am S 6-8 kts 18.8°c 1015.2 hPa 100% 0.2mm
12/02:31am SSW 6-8 kts 19.0°c 1015.4 hPa 100% 0.2mm
12/02:30am SSW 6-8 kts 18.9°c 1015.4 hPa 100% 0.2mm
12/02:28am SSW 6-8 kts 18.9°c 1015.5 hPa 100% 0.2mm
12/02:00am SSW 7-8 kts 18.3°c 1015.2 hPa 99% 0.2mm
12/01:54am SSW 7-8 kts 18.1°c 1015.2 hPa 99% 0.2mm
12/01:39am SSE 4-6 kts 17.9°c 1015.0 hPa 99% 0.2mm
12/01:30am SSE 5-8 kts 18.0°c 1015.0 hPa 99% 0.2mm
12/01:25am S 6-9 kts 18.8°c 1015.1 hPa 99% 0.2mm
12/01:16am S 7-10 kts 18.4°c 1015.5 hPa 99% 0.2mm
12/01:00am S 4 kts 18.2°c 1015.6 hPa 99% 0.2mm
12/12:57am S 4 kts 18.4°c 1015.6 hPa 99% 0.2mm
12/12:30am SSE 4-6 kts 18.4°c 1015.8 hPa 99% 0.2mm
12/12:21am S 5 kts 18.5°c 1015.8 hPa 99% 0.2mm
12/12:00am S 3-4 kts 18.9°c 1016.1 hPa 99% 0.2mm